Time,TemperatureF,DewpointF,PressureIn,WindDirection,WindDirectionDegrees,WindSpeedMPH,WindSpeedGustMPH,Humidity,HourlyPrecipIn,Conditions,Clouds,dailyrainin,SoftwareType,DateUTC
2013-06-27 00:02:00,72.1,71.8,29.52,SSW,202,7.8,-999.0,99,-99.99,,,0.00,Acu-Link.com,2013-06-27 04:02:00,
2013-06-27 00:17:00,71.8,71.5,29.52,SSW,202,7.3,-999.0,99,-99.99,,,0.00,Acu-Link.com,2013-06-27 04:17:00,
2013-06-27 00:32:00,71.2,70.9,29.52,SSW,202,4.7,-999.0,99,-99.99,,,0.00,Acu-Link.com,2013-06-27 04:32:00,
2013-06-27 00:48:00,70.7,70.4,29.51,SSW,202,3.7,-999.0,99,-99.99,,,0.00,Acu-Link.com,2013-06-27 04:48:00,
2013-06-27 01:03:00,70.5,70.2,29.51,SSW,202,4.2,-999.0,99,-99.99,,,0.00,Acu-Link.com,2013-06-27 05:03:00,
2013-06-27 01:18:00,70.3,70.0,29.51,SSW,202,6.8,-999.0,99,-99.99,,,0.00,Acu-Link.com,2013-06-27 05:18:00,
2013-06-27 01:33:00,70.2,69.9,29.50,SSW,202,7.3,-999.0,99,-99.99,,,0.00,Acu-Link.com,2013-06-27 05:33:00,
2013-06-27 01:48:00,70.0,69.7,29.50,SSE,157,7.3,-999.0,99,-99.99,,,0.00,Acu-Link.com,2013-06-27 05:48:00,
2013-06-27 02:03:00,69.8,69.5,29.50,SSW,202,5.8,-999.0,99,-99.99,,,0.00,Acu-Link.com,2013-06-27 06:03:00,
2013-06-27 02:18:00,69.8,69.5,29.51,SSW,202,6.3,-999.0,99,-99.99,,,0.00,Acu-Link.com,2013-06-27 06:18:00,
2013-06-27 02:33:00,69.4,69.1,29.50,WSW,247,3.7,-999.0,99,-99.99,,,0.00,Acu-Link.com,2013-06-27 06:33:00,
2013-06-27 02:48:00,69.1,68.8,29.50,SSW,202,3.7,-999.0,99,-99.99,,,0.00,Acu-Link.com,2013-06-27 06:48:00,
2013-06-27 03:03:00,68.9,68.6,29.50,SSW,202,4.7,-999.0,99,-99.99,,,0.00,Acu-Link.com,2013-06-27 07:03:00,
2013-06-27 03:18:00,68.5,68.2,29.49,SW,225,5.8,-999.0,99,-99.99,,,0.00,Acu-Link.com,2013-06-27 07:18:00,
2013-06-27 03:34:00,68.4,68.1,29.50,SSW,202,4.7,-999.0,99,-99.99,,,0.00,Acu-Link.com,2013-06-27 07:34:00,
2013-06-27 03:49:00,68.0,67.7,29.50,SW,225,6.3,-999.0,99,-99.99,,,0.00,Acu-Link.com,2013-06-27 07:49:00,
2013-06-27 04:04:00,67.8,67.5,29.50,SSW,202,3.7,-999.0,99,-99.99,,,0.00,Acu-Link.com,2013-06-27 08:04:00,
2013-06-27 04:19:00,67.8,67.5,29.50,WSW,247,5.8,-999.0,99,-99.99,,,0.00,Acu-Link.com,2013-06-27 08:19:00,
2013-06-27 04:34:00,67.8,67.5,29.50,WSW,247,4.2,-999.0,99,-99.99,,,0.00,Acu-Link.com,2013-06-27 08:34:00,
2013-06-27 04:50:00,67.8,67.5,29.51,West,270,4.2,-999.0,99,-99.99,,,0.00,Acu-Link.com,2013-06-27 08:50:00,
2013-06-27 05:05:00,67.6,67.3,29.50,West,270,2.7,-999.0,99,-99.99,,,0.00,Acu-Link.com,2013-06-27 09:05:00,
2013-06-27 05:20:00,67.6,67.3,29.49,WNW,292,6.8,-999.0,99,-99.99,,,0.00,Acu-Link.com,2013-06-27 09:20:00,
2013-06-27 05:35:00,68.0,67.7,29.49,SW,225,5.3,-999.0,99,-99.99,,,0.00,Acu-Link.com,2013-06-27 09:35:00,
2013-06-27 05:50:00,68.2,67.9,29.50,SW,225,7.8,-999.0,99,-99.99,,,0.00,Acu-Link.com,2013-06-27 09:50:00,
2013-06-27 06:05:00,68.7,68.4,29.50,West,270,7.8,-999.0,99,-99.99,,,0.01,Acu-Link.com,2013-06-27 10:05:00,
2013-06-27 06:21:00,68.7,68.4,29.50,North,0,5.8,-999.0,99,-99.99,,,0.04,Acu-Link.com,2013-06-27 10:21:00,
2013-06-27 06:36:00,69.3,69.0,29.51,SW,225,5.3,-999.0,99,-99.99,,,0.04,Acu-Link.com,2013-06-27 10:36:00,
2013-06-27 06:51:00,69.6,69.3,29.51,SW,225,4.2,-999.0,99,-99.99,,,0.04,Acu-Link.com,2013-06-27 10:51:00,
2013-06-27 07:06:00,69.8,69.5,29.51,WSW,247,5.3,-999.0,99,-99.99,,,0.04,Acu-Link.com,2013-06-27 11:06:00,
2013-06-27 07:21:00,70.2,69.9,29.51,NNW,337,3.2,-999.0,99,-99.99,,,0.04,Acu-Link.com,2013-06-27 11:21:00,
2013-06-27 07:37:00,70.5,70.2,29.51,West,270,3.7,-999.0,99,-99.99,,,0.04,Acu-Link.com,2013-06-27 11:37:00,
2013-06-27 07:52:00,70.7,70.4,29.51,WNW,292,4.7,-999.0,99,-99.99,,,0.04,Acu-Link.com,2013-06-27 11:52:00,
2013-06-27 08:07:00,70.7,70.4,29.51,West,270,5.3,-999.0,99,-99.99,,,0.04,Acu-Link.com,2013-06-27 12:07:00,
2013-06-27 08:22:00,70.9,70.6,29.51,NNW,337,5.8,-999.0,99,-99.99,,,0.04,Acu-Link.com,2013-06-27 12:22:00,
2013-06-27 08:37:00,71.6,71.3,29.52,WNW,292,6.3,-999.0,99,-99.99,,,0.04,Acu-Link.com,2013-06-27 12:37:00,
2013-06-27 08:52:00,72.7,72.4,29.52,NW,315,8.3,-999.0,99,-99.99,,,0.04,Acu-Link.com,2013-06-27 12:52:00,
2013-06-27 09:07:00,72.9,72.6,29.53,NNW,337,8.3,-999.0,99,-99.99,,,0.04,Acu-Link.com,2013-06-27 13:07:00,
2013-06-27 09:23:00,75.7,75.4,29.52,NW,315,4.7,-999.0,99,-99.99,,,0.04,Acu-Link.com,2013-06-27 13:23:00,
2013-06-27 09:38:00,75.7,75.4,29.53,NNW,337,10.4,-999.0,99,-99.99,,,0.04,Acu-Link.com,2013-06-27 13:38:00,
2013-06-27 09:53:00,76.1,75.8,29.51,West,270,14.5,-999.0,99,-99.99,,,0.04,Acu-Link.com,2013-06-27 13:53:00,
2013-06-27 10:08:00,77.2,76.6,29.52,WNW,292,9.9,-999.0,98,-99.99,,,0.04,Acu-Link.com,2013-06-27 14:08:00,
2013-06-27 10:23:00,77.9,76.0,29.52,NNW,337,11.4,-999.0,94,-99.99,,,0.04,Acu-Link.com,2013-06-27 14:23:00,
2013-06-27 10:38:00,78.4,76.8,29.52,NW,315,4.7,-999.0,95,-99.99,,,0.04,Acu-Link.com,2013-06-27 14:38:00,
2013-06-27 10:54:00,79.3,77.1,29.52,NE,45,10.4,-999.0,93,-99.99,,,0.04,Acu-Link.com,2013-06-27 14:54:00,
2013-06-27 11:09:00,79.2,75.7,29.52,NNW,337,6.3,-999.0,89,-99.99,,,0.04,Acu-Link.com,2013-06-27 15:09:00,
2013-06-27 11:24:00,80.4,76.8,29.53,WNW,292,10.4,-999.0,89,-99.99,,,0.04,Acu-Link.com,2013-06-27 15:24:00,
2013-06-27 11:39:00,80.4,76.5,29.53,NNW,337,7.8,-999.0,88,-99.99,,,0.04,Acu-Link.com,2013-06-27 15:39:00,
2013-06-27 11:54:00,82.0,77.0,29.53,WNW,292,9.4,-999.0,85,-99.99,,,0.04,Acu-Link.com,2013-06-27 15:54:00,
2013-06-27 12:09:00,81.0,76.1,29.53,NW,315,8.3,-999.0,85,-99.99,,,0.04,Acu-Link.com,2013-06-27 16:09:00,
2013-06-27 12:24:00,81.3,76.3,29.53,NNW,337,11.9,-999.0,85,-99.99,,,0.04,Acu-Link.com,2013-06-27 16:24:00,
2013-06-27 12:39:00,81.9,76.6,29.53,NW,315,11.4,-999.0,84,-99.99,,,0.04,Acu-Link.com,2013-06-27 16:39:00,
2013-06-27 12:54:00,82.0,75.9,29.53,NNW,337,13.0,-999.0,82,-99.99,,,0.04,Acu-Link.com,2013-06-27 16:54:00,
2013-06-27 13:09:00,83.5,77.0,29.53,NNW,337,14.0,-999.0,81,-99.99,,,0.04,Acu-Link.com,2013-06-27 17:09:00,
2013-06-27 13:24:00,83.8,77.0,29.54,West,270,6.3,-999.0,80,-99.99,,,0.04,Acu-Link.com,2013-06-27 17:24:00,
2013-06-27 13:39:00,84.6,77.3,29.54,NNW,337,12.5,-999.0,79,-99.99,,,0.04,Acu-Link.com,2013-06-27 17:39:00,
2013-06-27 13:54:00,84.9,77.3,29.53,West,270,8.9,-999.0,78,-99.99,,,0.04,Acu-Link.com,2013-06-27 17:54:00,
2013-06-27 14:10:00,84.9,77.3,29.54,WNW,292,10.4,-999.0,78,-99.99,,,0.04,Acu-Link.com,2013-06-27 18:10:00,
2013-06-27 14:25:00,86.4,77.9,29.54,WNW,292,11.4,-999.0,76,-99.99,,,0.04,Acu-Link.com,2013-06-27 18:25:00,
2013-06-27 14:40:00,85.6,76.7,29.53,NW,315,9.9,-999.0,75,-99.99,,,0.04,Acu-Link.com,2013-06-27 18:40:00,
2013-06-27 14:55:00,85.3,76.5,29.54,WNW,292,11.9,-999.0,75,-99.99,,,0.04,Acu-Link.com,2013-06-27 18:55:00,
2013-06-27 15:10:00,85.8,77.7,29.55,West,270,7.8,-999.0,77,-99.99,,,0.04,Acu-Link.com,2013-06-27 19:10:00,
2013-06-27 15:25:00,86.2,78.1,29.54,SW,225,13.0,-999.0,77,-99.99,,,0.04,Acu-Link.com,2013-06-27 19:25:00,
2013-06-27 15:40:00,84.9,77.6,29.53,NNE,22,9.4,-999.0,79,-99.99,,,0.04,Acu-Link.com,2013-06-27 19:40:00,
2013-06-27 15:55:00,87.1,78.6,29.53,WNW,292,11.9,-999.0,76,-99.99,,,0.04,Acu-Link.com,2013-06-27 19:55:00,
2013-06-27 16:10:00,85.8,77.3,29.53,NNW,337,12.5,-999.0,76,-99.99,,,0.04,Acu-Link.com,2013-06-27 20:10:00,
2013-06-27 16:25:00,87.3,79.2,29.53,NW,315,8.9,-999.0,77,-99.99,,,0.04,Acu-Link.com,2013-06-27 20:25:00,
2013-06-27 16:41:00,88.0,79.1,29.52,NNW,337,10.9,-999.0,75,-99.99,,,0.04,Acu-Link.com,2013-06-27 20:41:00,
2013-06-27 16:56:00,87.6,79.5,29.51,NNW,337,8.9,-999.0,77,-99.99,,,0.04,Acu-Link.com,2013-06-27 20:56:00,
2013-06-27 17:11:00,88.5,79.9,29.51,West,270,8.3,-999.0,76,-99.99,,,0.04,Acu-Link.com,2013-06-27 21:11:00,
2013-06-27 17:27:00,87.4,78.5,29.50,NNW,337,6.8,-999.0,75,-99.99,,,0.05,Acu-Link.com,2013-06-27 21:27:00,
2013-06-27 17:42:00,87.1,79.8,29.49,West,270,9.4,-999.0,79,-99.99,,,0.05,Acu-Link.com,2013-06-27 21:42:00,
2013-06-27 17:57:00,88.7,80.5,29.50,NNW,337,9.4,-999.0,77,-99.99,,,0.05,Acu-Link.com,2013-06-27 21:57:00,
2013-06-27 18:12:00,89.2,79.8,29.49,West,270,10.9,-999.0,74,-99.99,,,0.05,Acu-Link.com,2013-06-27 22:12:00,
2013-06-27 18:27:00,89.4,78.7,29.48,West,270,7.3,-999.0,71,-99.99,,,0.05,Acu-Link.com,2013-06-27 22:27:00,
2013-06-27 18:58:00,88.5,78.3,29.48,NNW,337,14.0,-999.0,72,-99.99,,,0.05,Acu-Link.com,2013-06-27 22:58:00,
2013-06-27 19:28:00,88.5,78.3,29.47,NNW,337,4.2,-999.0,72,-99.99,,,0.05,Acu-Link.com,2013-06-27 23:28:00,
2013-06-27 19:59:00,88.3,77.2,29.47,NW,315,3.7,-999.0,70,-99.99,,,0.05,Acu-Link.com,2013-06-27 23:59:00,
2013-06-27 20:14:00,87.6,77.4,29.47,West,270,5.8,-999.0,72,-99.99,,,0.05,Acu-Link.com,2013-06-28 00:14:00,
2013-06-27 20:29:00,86.7,76.6,29.47,WNW,292,5.3,-999.0,72,-99.99,,,0.05,Acu-Link.com,2013-06-28 00:29:00,
2013-06-27 20:44:00,86.2,76.5,29.47,SE,135,5.8,-999.0,73,-99.99,,,0.05,Acu-Link.com,2013-06-28 00:44:00,
2013-06-27 20:59:00,85.1,76.3,29.46,SW,225,7.3,-999.0,75,-99.99,,,0.05,Acu-Link.com,2013-06-28 00:59:00,
2013-06-27 21:29:00,82.6,76.2,29.46,SW,225,6.3,-999.0,81,-99.99,,,0.05,Acu-Link.com,2013-06-28 01:29:00,
2013-06-27 21:44:00,81.9,74.7,29.46,West,270,8.9,-999.0,79,-99.99,,,0.05,Acu-Link.com,2013-06-28 01:44:00,
2013-06-27 22:00:00,81.0,73.5,29.44,WNW,292,5.3,-999.0,78,-99.99,,,0.05,Acu-Link.com,2013-06-28 02:00:00,
2013-06-27 22:15:00,80.2,73.1,29.45,West,270,4.7,-999.0,79,-99.99,,,0.05,Acu-Link.com,2013-06-28 02:15:00,
2013-06-27 22:30:00,79.5,72.4,29.46,WNW,292,3.2,-999.0,79,-99.99,,,0.05,Acu-Link.com,2013-06-28 02:30:00,
2013-06-27 22:45:00,79.0,72.3,29.46,West,270,4.7,-999.0,80,-99.99,,,0.05,Acu-Link.com,2013-06-28 02:45:00,
2013-06-27 23:00:00,78.8,72.1,29.45,NW,315,3.7,-999.0,80,-99.99,,,0.05,Acu-Link.com,2013-06-28 03:00:00,
2013-06-27 23:31:00,77.2,72.0,29.44,WSW,247,4.2,-999.0,84,-99.99,,,0.05,Acu-Link.com,2013-06-28 03:31:00,
2013-06-27 23:46:00,76.6,72.1,29.45,West,270,3.2,-999.0,86,-99.99,,,0.05,Acu-Link.com,2013-06-28 03:46:00,